When you browse on this site, cookies collect data to enhance your experience and personalize the content and advertising you see.
Visit our Privacy Policy to learn more. By continuing to use the site, you agree to this use of cookies and data.
  • In Hungary
  • List of Countries
  • For 7 days
  • Water Temperature
  • Satellite Maps
  • Weather Map
  • News
  • Weather Widgets
  • user-avatar
    Login

    Hourly Weather Pilis

    Today, 27 June, Thursday

    Time Temperature Precipitation Wind Pressure Humidity
    00:00 +25°C° 0 mm 2 mps 753 mmHg 76%
    01:00 +25°C° 0 mm 2 mps 753 mmHg 77%
    02:00 +25°C° 0 mm 2 mps 752 mmHg 79%
    03:00 +24°C° 0 mm 3 mps 752 mmHg 81%
    04:00 +24°C° 0 mm 3 mps 752 mmHg 84%
    05:00 +25°C° 0 mm 3 mps 751 mmHg 81%
    06:00 +26°C° 0 mm 4 mps 751 mmHg 77%
    07:00 +27°C° 0 mm 4 mps 751 mmHg 74%
    08:00 +29°C° 0 mm 4 mps 751 mmHg 71%
    09:00 +30°C° 0 mm 4 mps 751 mmHg 67%
    10:00 +33°C° 0 mm 4 mps 751 mmHg 63%
    11:00 +34°C° 0.3 mm 4 mps 750 mmHg 60%
    12:00 +35°C° 0.3 mm 5 mps 750 mmHg 57%
    13:00 +36°C° 0.3 mm 5 mps 749 mmHg 53%
    14:00 +35°C° 0 mm 6 mps 749 mmHg 54%
    15:00 +34°C° 0 mm 6 mps 749 mmHg 55%
    16:00 +34°C° 0 mm 7 mps 748 mmHg 55%
    17:00 +32°C° 0 mm 6 mps 748 mmHg 58%
    18:00 +29°C° 0 mm 5 mps 748 mmHg 61%
    19:00 +26°C° 0 mm 5 mps 748 mmHg 63%
    20:00 +26°C° 0 mm 5 mps 749 mmHg 58%
    21:00 +25°C° 0 mm 4 mps 749 mmHg 53%
    22:00 +23°C° 0 mm 4 mps 750 mmHg 48%
    23:00 +21°C° 0 mm 3 mps 750 mmHg 52%

    Tomorrow, 28 June, Friday

    Time Temperature Precipitation Wind Pressure Humidity
    00:00 +20°C° 0 mm 2 mps 751 mmHg 56%
    01:00 +20°C° 0 mm 1 mps 751 mmHg 61%
    02:00 +19°C° 0 mm 1 mps 751 mmHg 62%
    03:00 +19°C° 0 mm 1 mps 751 mmHg 64%
    04:00 +18°C° 0 mm 1 mps 751 mmHg 66%
    05:00 +19°C° 0 mm 1 mps 751 mmHg 65%
    06:00 +19°C° 0 mm 2 mps 751 mmHg 64%
    07:00 +20°C° 0 mm 2 mps 751 mmHg 64%
    08:00 +21°C° 0 mm 2 mps 752 mmHg 60%
    09:00 +23°C° 0 mm 2 mps 752 mmHg 57%
    10:00 +24°C° 0 mm 2 mps 752 mmHg 53%
    11:00 +25°C° 0 mm 2 mps 752 mmHg 52%
    12:00 +25°C° 0 mm 2 mps 752 mmHg 51%
    13:00 +26°C° 0 mm 2 mps 752 mmHg 50%
    14:00 +26°C° 0 mm 1 mps 752 mmHg 50%
    15:00 +26°C° 0 mm 1 mps 752 mmHg 50%
    16:00 +26°C° 0 mm 1 mps 751 mmHg 50%
    17:00 +25°C° 0 mm 1 mps 752 mmHg 56%
    18:00 +24°C° 0 mm 1 mps 752 mmHg 62%
    19:00 +23°C° 0 mm 2 mps 752 mmHg 68%
    20:00 +21°C° 0 mm 2 mps 752 mmHg 69%
    21:00 +20°C° 0 mm 2 mps 752 mmHg 70%
    22:00 +18°C° 0 mm 2 mps 752 mmHg 72%
    23:00 +18°C° 0 mm 2 mps 752 mmHg 73%

    Day after tomorrow, 29 June, Saturday

    Time Temperature Precipitation Wind Pressure Humidity
    00:00 +17°C° 0 mm 2 mps 752 mmHg 74%
    01:00 +16°C° 0 mm 1 mps 752 mmHg 75%
    02:00 +16°C° 0 mm 1 mps 753 mmHg 75%
    03:00 +16°C° 0 mm 2 mps 753 mmHg 74%
    04:00 +16°C° 0 mm 2 mps 753 mmHg 74%
    05:00 +17°C° 0 mm 2 mps 753 mmHg 73%
    06:00 +20°C° 0 mm 1 mps 753 mmHg 72%
    07:00 +21°C° 0 mm 1 mps 753 mmHg 71%
    08:00 +22°C° 0 mm 1 mps 753 mmHg 67%
    09:00 +23°C° 0 mm 1 mps 753 mmHg 63%
    10:00 +25°C° 0 mm 1 mps 753 mmHg 59%
    11:00 +25°C° 0 mm 2 mps 753 mmHg 56%
    12:00 +26°C° 0 mm 2 mps 753 mmHg 53%
    13:00 +27°C° 0 mm 2 mps 753 mmHg 49%
    14:00 +27°C° 0 mm 2 mps 753 mmHg 49%
    15:00 +27°C° 0 mm 2 mps 752 mmHg 49%
    16:00 +27°C° 0 mm 2 mps 752 mmHg 48%
    17:00 +26°C° 0 mm 2 mps 752 mmHg 54%
    18:00 +24°C° 0 mm 2 mps 752 mmHg 60%
    19:00 +23°C° 0 mm 2 mps 752 mmHg 66%
    20:00 +21°C° 0 mm 2 mps 752 mmHg 65%
    21:00 +20°C° 0 mm 2 mps 753 mmHg 65%
    22:00 +19°C° 0 mm 2 mps 753 mmHg 64%
    23:00 +18°C° 0 mm 2 mps 753 mmHg 65%

    30 June, Sunday

    Time Temperature Precipitation Wind Pressure Humidity
    00:00 +18°C° 0 mm 1 mps 753 mmHg 66%
    01:00 +18°C° 0 mm 1 mps 753 mmHg 68%
    02:00 +18°C° 0 mm 1 mps 753 mmHg 68%
    03:00 +18°C° 0 mm 1 mps 753 mmHg 68%
    04:00 +16°C° 0 mm 1 mps 753 mmHg 69%
    05:00 +19°C° 0 mm 1 mps 753 mmHg 67%
    06:00 +20°C° 0 mm 1 mps 753 mmHg 65%
    07:00 +21°C° 0 mm 2 mps 753 mmHg 63%
    08:00 +23°C° 0 mm 2 mps 753 mmHg 61%
    09:00 +25°C° 0 mm 2 mps 753 mmHg 58%
    10:00 +26°C° 0 mm 2 mps 754 mmHg 56%
    11:00 +27°C° 0 mm 2 mps 753 mmHg 54%
    12:00 +28°C° 0 mm 2 mps 753 mmHg 51%
    13:00 +29°C° 0 mm 2 mps 753 mmHg 48%
    14:00 +29°C° 0 mm 2 mps 753 mmHg 48%
    15:00 +29°C° 0 mm 2 mps 752 mmHg 49%
    16:00 +29°C° 0 mm 2 mps 752 mmHg 49%
    17:00 +28°C° 0 mm 2 mps 752 mmHg 55%
    18:00 +27°C° 0 mm 2 mps 752 mmHg 61%
    19:00 +25°C° 0 mm 2 mps 752 mmHg 67%
    20:00 +24°C° 0 mm 2 mps 752 mmHg 69%
    21:00 +23°C° 0 mm 2 mps 752 mmHg 71%
    22:00 +21°C° 0 mm 2 mps 752 mmHg 73%
    23:00 +21°C° 0 mm 2 mps 752 mmHg 75%

    1 July, Monday

    Time Temperature Precipitation Wind Pressure Humidity
    00:00 +20°C° 0 mm 2 mps 752 mmHg 77%
    01:00 +20°C° 0 mm 2 mps 752 mmHg 79%
    02:00 +19°C° 0 mm 2 mps 752 mmHg 81%
    03:00 +19°C° 0 mm 2 mps 752 mmHg 83%
    04:00 +18°C° 0 mm 2 mps 752 mmHg 84%
    05:00 +20°C° 0 mm 2 mps 752 mmHg 79%
    06:00 +21°C° 0 mm 2 mps 752 mmHg 74%
    07:00 +24°C° 0 mm 2 mps 752 mmHg 68%
    08:00 +25°C° 0 mm 3 mps 752 mmHg 63%
    09:00 +27°C° 0 mm 3 mps 752 mmHg 59%
    10:00 +28°C° 0 mm 4 mps 752 mmHg 54%
    11:00 +29°C° 0 mm 4 mps 752 mmHg 52%
    12:00 +30°C° 0 mm 4 mps 751 mmHg 50%
    13:00 +32°C° 0 mm 4 mps 751 mmHg 49%
    14:00 +32°C° 0 mm 4 mps 751 mmHg 50%
    15:00 +32°C° 0 mm 4 mps 750 mmHg 51%
    16:00 +32°C° 0 mm 4 mps 750 mmHg 52%
    17:00 +30°C° 0 mm 3 mps 749 mmHg 58%
    18:00 +28°C° 0 mm 3 mps 749 mmHg 64%
    19:00 +27°C° 0 mm 3 mps 749 mmHg 70%
    20:00 +26°C° 0 mm 3 mps 749 mmHg 72%
    21:00 +25°C° 0 mm 2 mps 749 mmHg 73%
    22:00 +24°C° 0 mm 2 mps 749 mmHg 75%
    23:00 +23°C° 0 mm 2 mps 749 mmHg 76%

    2 July, Tuesday

    Time Temperature Precipitation Wind Pressure Humidity
    00:00 +23°C° 0 mm 2 mps 749 mmHg 77%
    01:00 +23°C° 0 mm 2 mps 749 mmHg 78%
    02:00 +21°C° 0.4 mm 2 mps 748 mmHg 80%
    03:00 +21°C° 0.4 mm 2 mps 748 mmHg 82%
    04:00 +20°C° 0.4 mm 2 mps 748 mmHg 84%
    05:00 +23°C° 0 mm 2 mps 748 mmHg 80%
    06:00 +24°C° 0 mm 2 mps 748 mmHg 77%
    07:00 +25°C° 0 mm 2 mps 748 mmHg 74%
    08:00 +27°C° 0 mm 3 mps 749 mmHg 69%
    09:00 +29°C° 0 mm 3 mps 749 mmHg 64%
    10:00 +32°C° 0 mm 4 mps 749 mmHg 60%
    11:00 +33°C° 0 mm 4 mps 749 mmHg 55%
    12:00 +33°C° 0 mm 5 mps 749 mmHg 51%
    13:00 +34°C° 0 mm 5 mps 749 mmHg 46%
    14:00 +34°C° 0 mm 5 mps 749 mmHg 47%
    15:00 +33°C° 0 mm 5 mps 749 mmHg 48%
    16:00 +32°C° 0 mm 6 mps 749 mmHg 48%
    17:00 +29°C° 0 mm 5 mps 749 mmHg 53%
    18:00 +28°C° 0 mm 4 mps 749 mmHg 58%
    19:00 +26°C° 0 mm 4 mps 749 mmHg 63%
    20:00 +25°C° 0 mm 4 mps 750 mmHg 64%
    21:00 +24°C° 0 mm 3 mps 750 mmHg 65%
    22:00 +22°C° 0 mm 3 mps 750 mmHg 66%
    23:00 +21°C° 0 mm 3 mps 751 mmHg 68%
    Show more